Flag for China Weather past 2 weeks in Hohhot, Inner Mongolia, China

Now
64 °F

Passing clouds.


Feels Like: 64 °F
Forecast: 58 / 87 °F
Wind: 6 mph from East

Location: Hohhot Airport

Current Time: Jul 24, 2014 at 10:13:47 PM

Latest Report: Jul 24, 2014 at 9:00 PM


Visibility: N/A

Pressure: 29.86 "Hg

Humidity: 83%

Dew point: 59 °F

Location of HohhotLocation

Historic Weather in Hohhot — Graph

°F

Hohhot temperature yesterday

Maximum temperature yesterday: 73 °F (at 4:00 PM)
Minimum temperature yesterday: 61 °F (at 12:00 AM)
Average temperature yesterday: 67 °F

Past Weeks' High & Low Weather Summary

 TemperatureHumidityPressure
High93 °F (Jul 18, 4:00 PM)100% (Jul 22, 6:00 AM)30.01 "Hg (Jul 22, 6:00 AM)
Low54 °F (Jul 11, 5:00 AM)26% (Jul 12, 5:00 PM)29.68 "Hg (Jul 16, 5:00 PM)
Average71 °F66%29.84 "Hg
* Reported Jul 9 8:00 PM — Jul 24 8:00 PM, Hohhot, Weather by CustomWeather, © 2014

Note: Actual official high and low records may vary slightly from our data, if they occured in-between our weather recording intervals... More about our weather records

Advertising

Hohhot weather history for previous 24 hours

 ConditionsComfort  
Time TempWeatherWind HumidityBarometerVisibility
8:00 PM
Jul 24
70 °FPassing clouds.1 mph78%29.83 "HgN/A
7:00 PM73 °FPassing clouds.6 mph61%29.83 "HgN/A
6:00 PM70 °FPassing clouds.8 mph69%29.80 "HgN/A
5:00 PM68 °FThunderstorms. Scattered clouds.10 mph69%29.80 "HgN/A
4:00 PM79 °FPassing clouds.8 mph58%29.83 "HgN/A
3:00 PM81 °FPassing clouds.10 mph58%29.83 "HgN/A
2:00 PM77 °FPassing clouds.6 mph61%29.83 "HgN/A
1:00 PM77 °FPassing clouds.6 mph57%29.86 "HgN/A
12:00 PM75 °FPassing clouds.6 mph65%29.89 "HgN/A
11:00 AM73 °FSunny.3 mph65%29.89 "Hg10 mi
10:00 AM72 °FSunny.3 mph69%29.89 "Hg10 mi
9:00 AM68 °FSunny.1 mph78%29.92 "Hg10 mi
8:00 AM66 °FSunny.1 mph78%29.92 "Hg10 mi
7:00 AM61 °FSunny.1 mph88%29.92 "Hg10 mi
6:00 AM57 °FPassing clouds.3 mph94%29.92 "HgN/A
5:00 AM57 °FPassing clouds.3 mph94%29.92 "HgN/A
4:00 AM57 °FPassing clouds.6 mph100%29.92 "HgN/A
3:00 AM59 °FPassing clouds.3 mph94%29.92 "HgN/A
2:00 AM59 °FPassing clouds.3 mph94%29.92 "HgN/A
1:00 AM61 °FPassing clouds.1 mph94%29.92 "HgN/A
12:00 AM63 °FPassing clouds.3 mph94%29.92 "HgN/A
11:00 PM
Jul 23
64 °FPassing clouds.3 mph88%29.92 "HgN/A
10:00 PM66 °FPassing clouds.3 mph83%29.92 "HgN/A
Weather by CustomWeather, © 2014

See weather overviewHow to use our weather pages